Temperature
32 32 31 31 31 31 32 32 32 32 33 33 32 32 32 31 31 30 29 28 27 26 25 24 23 23 21 21 20 20 20 20 19 19 19 19 19 19 19 19 18 18 18 18
32 31 32 33 33 32 32 32 32 33 34 33 32 32 32 32 31 30 29 28 27 27 25 24 23 22 22 21 20 20 20 19 19 19 19 19 19 19 19 19 19 18 18 18
32 33 33 33 33 32 33 32 32 32 33 33 32 30 30 31 31 30 30 29 28 27 25 24 23 23 22 21 20 20 20 19 19 19 19 19 19 19 19 19 18 18 18 18
32 33 33 33 33 33 32 33 33 33 32 32 32 30 29 30 31 31 30 29 28 27 26 24 23 23 22 21 20 20 20 19 19 19 19 19 18 18 18 18 18 18 18 18
32 33 33 32 33 33 33 34 33 33 32 31 31 30 30 30 30 30 31 30 29 27 26 25 24 23 22 21 21 20 19 19 19 19 19 18 18 18 18 18 18 18 18 18
33 34 34 34 34 34 34 33 32 32 32 30 31 30 29 30 30 31 31 30 29 28 26 25 24 23 22 22 21 20 20 19 19 19 18 18 18 18 18 18 18 18 18 18
32 33 34 34 33 34 33 31 29 29 29 30 31 31 30 31 32 32 31 30 29 28 27 25 24 23 23 22 21 20 20 19 19 19 18 18 18 18 18 18 18 18 18 17
31 31 33 34 33 33 33 32 30 28 28 30 30 29 30 32 32 32 31 30 28 27 26 25 24 24 23 22 21 20 20 19 19 19 18 18 18 18 18 18 17 17 17 17
31 31 33 34 34 34 33 32 33 31 30 29 29 29 30 31 31 31 31 29 28 27 27 25 24 24 23 22 21 21 20 19 19 19 18 18 18 18 17 17 17 17 18 17
32 30 33 34 34 34 34 33 32 30 28 28 29 29 29 29 30 31 31 30 28 28 27 26 25 24 23 22 21 21 20 19 19 18 18 18 18 18 18 17 17 17 17 17
33 31 32 33 32 32 33 32 31 31 30 28 28 28 30 29 30 30 30 29 28 27 27 26 24 24 23 22 21 21 20 19 19 18 18 18 18 17 17 17 17 17 17 17
33 32 31 32 34 34 33 32 32 30 29 29 29 28 31 31 30 30 30 29 28 27 26 25 24 24 23 22 22 21 20 19 19 18 18 18 18 17 17 17 17 17 17 17
32 31 30 30 31 32 32 32 33 32 30 30 29 29 31 31 30 30 29 28 27 26 26 25 24 23 22 22 21 21 20 19 19 18 18 18 17 17 17 17 17 17 16 16
31 31 30 29 29 30 31 31 32 32 30 29 29 29 30 30 30 29 28 28 27 26 25 24 23 22 22 21 21 20 20 19 19 18 18 17 17 17 17 17 16 16 16 16
31 30 30 31 31 31 30 31 32 31 31 30 30 30 30 29 29 28 28 27 26 25 25 23 23 22 21 21 20 20 19 19 19 18 18 17 17 17 17 16 16 16 16 16
30 30 30 29 30 31 30 30 31 31 31 31 31 30 31 30 29 28 27 27 26 25 24 23 22 21 21 20 20 19 19 19 18 18 18 17 17 17 16 16 16 16 16 16
30 29 28 28 29 29 29 30 30 30 30 30 30 30 30 29 28 28 27 26 25 24 24 23 22 21 21 20 20 19 19 18 18 17 17 17 17 16 16 16 16 16 16 15
29 28 28 28 28 27 29 31 31 30 29 29 29 29 29 29 28 27 26 26 24 24 23 23 22 21 20 20 19 19 18 18 17 17 17 17 16 16 16 16 16 16 16 15
30 28 27 27 27 27 29 29 30 29 28 29 28 28 28 28 27 27 25 24 24 23 22 22 22 21 20 20 19 18 18 18 17 17 16 16 16 16 16 16 16 15 15 15
29 28 27 27 26 26 27 28 29 29 27 28 28 27 27 27 26 26 24 23 23 22 22 21 21 21 20 19 19 18 18 17 17 17 16 16 16 16 16 15 15 15 15 15
26 26 26 26 26 26 27 28 29 27 26 27 26 26 26 26 25 24 23 22 22 21 21 21 20 20 19 19 18 18 17 17 17 16 16 16 16 16 15 15 15 15 15 15
26 26 25 25 25 25 26 27 26 26 26 26 26 25 25 24 24 23 22 22 21 20 20 20 20 19 19 18 18 17 17 17 16 16 16 16 15 15 15 15 15 15 14 14
26 26 26 25 25 25 26 26 25 26 25 25 25 24 24 23 23 22 21 21 20 20 19 19 19 19 18 18 18 17 17 17 16 16 16 15 15 15 15 15 15 14 14 14
26 26 25 24 24 25 25 25 25 24 25 24 24 24 23 23 22 21 21 20 19 19 19 18 18 18 17 17 17 17 16 16 16 16 15 15 15 15 15 15 14 14 14 14
24 24 24 23 24 24 24 24 24 24 24 24 23 23 23 22 21 21 20 19 19 18 18 18 18 17 17 17 16 16 16 16 16 15 15 15 15 15 15 14 14 14 14 14
24 24 23 23 23 23 23 23 23 23 23 23 22 22 22 21 21 20 19 19 18 18 18 17 17 17 16 16 16 16 16 16 15 15 15 15 15 14 14 14 14 14 14 14
Wind_Speed
12 12 10 9 9 8 8 6 5 3 4 4 4 6 10 12 11 11 11 11 12 11 12 11 10 10 10 8 7 6 5 5 4 3 2 2 1 2 2 2 2 2 2 2
11 13 11 10 9 10 9 7 7 5 5 4 4 5 6 9 10 10 12 12 12 12 12 11 10 10 10 9 8 7 6 6 5 4 3 2 2 1 1 1 2 2 2 1
15 11 9 11 11 12 10 8 8 7 5 4 4 5 4 7 9 11 11 12 12 12 12 12 11 10 10 9 9 7 6 6 5 4 4 2 2 1 1 1 2 2 2 2
14 12 10 11 12 11 10 8 9 9 8 7 7 5 6 8 9 11 12 11 13 13 13 13 12 10 10 10 10 8 7 6 5 4 4 4 3 2 2 1 2 2 2 2
13 11 11 12 11 10 8 7 10 12 10 9 8 6 5 7 9 11 12 13 13 14 13 13 12 11 10 10 10 9 8 7 6 5 4 3 3 2 2 2 2 2 2 2
15 12 12 11 10 10 7 7 11 12 9 10 10 7 5 6 8 9 11 12 13 13 13 13 12 10 9 9 9 9 9 8 7 6 5 4 3 2 1 1 1 2 2 2
15 16 13 12 12 10 9 7 6 7 7 9 7 5 2 6 7 6 9 10 12 12 12 12 12 11 9 9 8 9 9 9 8 7 5 5 4 3 2 2 2 2 2 2
13 13 12 12 12 10 10 10 8 8 8 9 5 2 1 5 6 7 8 11 11 11 11 11 10 9 8 9 9 8 9 9 8 7 5 4 3 3 3 3 2 2 2 2
10 10 11 11 11 11 11 11 10 9 10 9 5 3 3 3 5 7 10 11 11 10 10 11 10 9 9 8 8 9 8 8 8 7 6 5 4 3 2 2 3 2 1 1
11 12 13 10 10 13 12 11 7 7 6 8 8 4 3 4 5 6 8 10 10 9 9 10 9 8 9 9 8 8 8 7 6 6 6 6 4 3 2 2 2 1 1 1
12 13 13 11 11 12 10 11 8 7 6 7 8 3 3 6 3 5 8 9 8 7 8 9 8 8 8 8 8 8 8 7 6 6 5 4 5 4 4 3 2 1 1 1
9 10 11 13 11 10 11 12 11 8 8 9 9 3 3 5 4 3 6 8 7 7 7 7 7 7 6 6 7 6 6 6 6 5 4 5 4 4 5 4 3 2 2 2
6 8 11 12 11 7 10 12 12 10 10 10 10 4 4 5 5 6 6 8 7 7 7 8 7 6 5 5 5 6 5 5 5 5 5 4 4 4 4 3 3 2 2 2
5 11 13 14 9 9 12 13 12 11 10 10 9 5 2 4 5 6 6 7 7 6 6 6 6 6 5 4 4 4 5 5 5 5 4 3 3 2 2 2 2 2 2 3
8 13 14 14 11 11 13 14 14 13 12 11 8 6 3 2 5 5 5 5 6 6 6 5 5 6 5 4 4 4 3 4 4 5 4 4 3 2 2 2 3 2 3 4
9 12 13 14 14 13 13 14 14 13 11 10 8 5 2 3 4 5 4 4 5 5 5 5 5 6 6 5 4 4 3 3 3 4 4 3 3 2 2 3 3 3 3 3
11 11 13 15 14 14 16 13 13 11 7 9 9 6 2 4 5 4 4 4 5 4 4 4 4 4 5 5 5 4 4 3 3 3 3 3 2 3 3 3 3 3 3 3
11 10 10 14 15 18 11 7 7 6 6 6 5 3 1 2 3 3 4 4 4 3 2 3 3 4 4 4 5 4 4 4 3 3 3 3 3 3 3 3 3 3 3 3
12 10 11 12 15 14 9 7 9 7 7 6 4 3 2 2 2 3 5 5 4 2 2 1 2 3 3 3 4 4 4 4 3 3 3 3 3 3 3 3 3 4 4 4
13 11 11 12 15 14 7 8 9 7 6 3 2 2 0 1 2 1 5 5 5 4 3 2 1 3 3 3 4 4 4 4 4 3 3 2 3 3 4 3 4 4 4 4
11 12 14 14 15 10 6 8 9 8 2 3 3 4 2 1 2 5 5 5 5 4 3 2 1 1 2 3 3 3 3 3 3 3 3 3 3 4 4 4 4 4 4 5
12 11 11 12 14 8 5 7 6 3 3 2 3 3 4 4 5 5 4 4 3 3 3 2 1 1 1 2 2 2 3 2 2 2 3 3 4 5 5 3 4 4 5 6
9 8 6 6 5 2 2 4 4 4 3 3 2 3 3 2 3 2 2 2 2 2 1 1 1 1 1 1 2 3 2 1 2 2 3 4 4 4 4 4 5 5 5 6
7 6 7 6 5 5 4 3 4 5 4 3 3 2 2 1 2 2 1 1 1 1 0 1 1 1 1 1 2 2 2 2 2 3 3 3 4 5 4 4 4 4 4 5
8 7 8 8 5 6 5 5 5 6 6 4 3 2 2 1 0 0 0 1 1 1 1 1 2 2 2 2 2 2 2 2 3 4 4 5 5 5 3 3 3 4 3 3
10 8 8 7 4 5 5 6 7 7 7 6 5 4 3 2 2 2 2 2 2 2 2 2 2 3 2 3 3 2 2 3 4 4 5 5 5 4 4 4 3 1 2 3
Wind_Direction
236 240 244 240 236 252 268 272 274 267 236 217 214 198 181 178 181 172 171 170 170 170 161 156 158 154 147 145 147 153 159 157 160 162 178 173 168 156 143 145 133 156 177 190
242 244 253 259 254 248 256 269 274 262 253 250 227 231 197 182 186 177 177 173 172 168 160 156 161 159 160 159 160 161 167 166 170 171 174 179 168 174 150 138 135 173 187 222
245 249 249 252 252 262 263 272 286 284 271 247 234 233 219 197 197 181 178 175 170 169 166 165 169 166 166 165 165 169 168 166 174 171 172 167 161 184 168 167 157 182 185 198
256 259 254 255 254 257 264 275 280 274 268 267 255 248 203 204 194 185 181 178 172 169 167 167 168 171 172 169 168 163 163 161 165 171 172 173 173 184 184 176 166 178 192 194
252 249 247 246 257 262 271 289 287 285 279 273 261 261 216 188 186 182 184 180 174 168 165 164 168 172 174 169 167 164 161 164 166 173 175 178 191 197 187 170 166 177 184 183
260 258 256 257 259 262 261 276 284 280 277 269 262 251 219 186 184 177 180 172 165 164 162 163 166 166 170 167 165 164 160 161 164 171 175 184 202 202 171 160 173 202 191 188
250 249 243 245 250 246 246 255 269 275 260 259 258 247 207 159 158 155 157 156 157 161 163 163 164 165 164 165 165 166 165 165 170 175 179 189 198 190 187 205 205 222 217 186
249 249 239 238 240 245 243 248 251 269 278 287 289 272 156 132 133 139 139 139 147 158 159 155 152 152 160 168 166 163 162 165 170 173 178 184 183 201 202 207 224 225 234 196
260 268 244 237 240 243 252 256 267 273 277 283 274 205 190 126 141 142 139 138 149 157 153 149 154 155 159 164 161 161 157 162 172 175 174 178 185 210 218 213 230 236 241 241
250 267 264 242 237 233 243 261 272 269 278 283 281 255 186 171 191 159 139 139 143 146 144 145 152 157 161 162 155 152 156 162 167 173 184 187 186 199 207 226 228 245 235 271
247 257 263 256 245 253 245 245 261 267 266 273 278 275 162 176 194 170 145 134 137 148 147 146 148 150 153 152 153 155 155 157 169 178 179 182 186 199 207 215 218 236 243 219
245 255 261 259 258 249 256 260 252 257 262 261 269 246 171 157 144 139 128 128 130 132 134 135 137 142 147 152 153 153 156 165 172 169 172 191 189 194 204 208 207 210 235 239
277 259 260 258 254 249 255 259 260 260 266 270 269 230 168 150 141 124 120 126 127 131 132 134 134 131 135 139 147 151 158 166 166 163 170 178 190 199 209 213 213 209 222 241
278 260 259 263 263 268 263 259 263 261 262 267 270 257 201 151 114 111 125 127 128 128 127 131 131 124 122 124 127 142 163 163 162 160 167 165 187 207 212 217 219 221 225 237
262 261 264 266 265 258 268 268 265 261 264 268 269 258 217 156 129 126 126 126 128 130 128 123 136 133 134 136 139 144 157 160 166 164 171 178 188 201 217 220 219 219 231 238
249 267 275 272 265 259 263 266 268 271 272 269 272 261 195 135 119 117 129 136 128 130 134 147 150 147 153 153 149 151 159 162 158 165 178 172 182 197 215 232 226 211 220 238
253 255 267 271 270 270 256 257 263 265 274 279 277 261 196 142 130 144 149 132 117 118 144 156 152 153 156 161 152 156 158 157 161 171 176 174 196 214 226 243 229 220 224 223
256 260 262 264 264 259 267 270 265 274 284 300 316 330 69 94 108 89 114 115 107 106 102 136 162 162 160 165 163 157 161 159 172 180 179 183 205 218 224 240 236 228 232 235
256 253 257 261 260 260 268 291 293 285 283 300 295 306 331 74 125 109 87 83 86 95 94 134 169 169 163 164 160 165 175 178 191 199 200 208 218 231 230 236 237 231 234 238
251 246 246 254 261 263 271 288 286 275 254 299 306 326 252 208 250 111 84 81 81 68 54 49 126 164 155 157 165 182 199 194 206 213 219 220 219 233 241 239 251 246 241 242
241 241 243 253 258 260 289 304 292 271 290 10 12 17 351 44 63 87 89 82 70 66 55 40 48 120 132 142 161 191 208 212 219 216 218 221 225 234 237 234 240 245 241 246
245 242 238 248 256 255 294 288 300 345 3 16 12 26 32 59 85 88 86 86 83 69 58 29 19 67 120 157 181 210 215 212 208 213 223 228 235 248 247 239 241 237 234 240
253 264 264 250 250 254 288 292 326 333 358 18 18 32 21 63 106 100 109 108 100 82 36 340 341 16 90 175 198 222 222 211 214 224 233 235 239 246 242 232 242 238 232 238
259 282 281 274 261 278 294 339 331 328 329 340 5 4 331 43 89 76 38 99 81 38 285 297 291 285 252 248 251 231 212 201 218 239 244 239 235 236 238 235 237 238 236 237
292 282 278 277 279 288 296 320 324 329 325 327 328 329 331 342 191 112 335 297 237 252 291 290 284 276 262 256 261 253 229 228 236 244 246 246 242 238 231 234 253 255 252 239
280 276 272 274 285 287 291 308 311 312 314 317 317 312 302 282 260 236 241 246 277 283 293 299 289 268 257 250 252 251 237 243 246 249 252 253 244 237 231 225 240 291 245 213
Height
1475 1476 1478 1474 1471 1472 1470 1473 1474 1468 1460 1463 1468 1469 1469 1472 1476 1480 1485 1489 1493 1497 1501 1504 1506 1509 1511 1512 1513 1515 1516 1517 1518 1519 1520 1521 1522 1523 1524 1524 1524 1525 1526 1526
1474 1474 1468 1465 1465 1466 1467 1472 1471 1465 1458 1461 1466 1467 1465 1469 1472 1477 1481 1485 1490 1494 1499 1502 1505 1507 1509 1510 1512 1513 1514 1515 1516 1517 1519 1520 1521 1522 1523 1523 1523 1524 1525 1525
1472 1466 1462 1463 1465 1467 1465 1468 1468 1466 1460 1459 1467 1473 1470 1468 1469 1473 1477 1482 1486 1491 1496 1499 1502 1505 1507 1508 1510 1511 1512 1513 1515 1516 1518 1519 1520 1521 1522 1522 1522 1523 1524 1524
1465 1460 1461 1463 1463 1462 1469 1459 1460 1462 1468 1471 1467 1485 1476 1466 1467 1469 1474 1478 1482 1487 1492 1496 1500 1503 1505 1506 1508 1509 1510 1512 1513 1515 1516 1517 1518 1519 1520 1521 1521 1522 1522 1523
1463 1459 1460 1463 1460 1457 1461 1456 1459 1460 1465 1469 1467 1479 1477 1465 1469 1468 1469 1474 1478 1483 1488 1493 1496 1500 1502 1504 1506 1507 1508 1510 1511 1513 1514 1516 1517 1518 1519 1520 1521 1521 1521 1522
1457 1454 1454 1455 1454 1453 1454 1459 1461 1461 1467 1484 1471 1476 1480 1466 1464 1462 1465 1470 1475 1481 1485 1490 1494 1498 1501 1503 1504 1505 1506 1508 1510 1511 1513 1514 1516 1517 1518 1518 1519 1520 1520 1520
1462 1455 1451 1451 1455 1453 1456 1470 1487 1491 1490 1485 1464 1470 1472 1458 1455 1458 1463 1468 1472 1478 1483 1487 1492 1495 1498 1500 1502 1503 1504 1506 1508 1510 1511 1513 1514 1515 1516 1517 1518 1519 1519 1519
1469 1467 1450 1448 1451 1456 1456 1463 1486 1501 1500 1482 1469 1476 1464 1453 1456 1458 1462 1467 1473 1477 1481 1485 1489 1493 1496 1498 1500 1501 1502 1504 1506 1508 1510 1512 1513 1514 1515 1515 1516 1517 1518 1518
1464 1464 1446 1444 1444 1448 1455 1457 1454 1471 1478 1485 1479 1471 1462 1454 1456 1459 1462 1467 1472 1476 1480 1484 1488 1491 1494 1496 1498 1500 1501 1503 1505 1507 1508 1510 1511 1512 1513 1514 1515 1515 1516 1516
1453 1464 1448 1441 1442 1442 1446 1449 1457 1470 1490 1496 1486 1477 1474 1466 1461 1459 1461 1466 1471 1475 1478 1482 1486 1488 1491 1494 1496 1499 1501 1502 1504 1505 1507 1508 1509 1510 1511 1512 1513 1513 1514 1514
1446 1457 1453 1446 1450 1451 1449 1451 1456 1462 1470 1488 1494 1483 1459 1461 1460 1459 1461 1465 1470 1474 1477 1481 1484 1487 1490 1492 1495 1497 1499 1500 1502 1504 1505 1506 1507 1508 1509 1509 1510 1511 1512 1512
1443 1451 1458 1450 1439 1438 1443 1447 1451 1468 1473 1470 1478 1478 1452 1453 1456 1459 1461 1466 1470 1474 1477 1480 1483 1486 1489 1491 1493 1495 1497 1499 1500 1501 1502 1504 1505 1506 1506 1507 1508 1508 1509 1509
1445 1452 1466 1463 1453 1445 1446 1443 1444 1449 1459 1466 1473 1473 1450 1452 1455 1459 1462 1466 1471 1474 1477 1480 1483 1485 1488 1490 1492 1494 1495 1497 1498 1499 1500 1502 1503 1504 1504 1505 1505 1506 1506 1506
1448 1451 1460 1469 1462 1453 1451 1446 1444 1448 1460 1465 1464 1462 1454 1454 1456 1460 1464 1467 1471 1474 1477 1479 1482 1484 1486 1489 1491 1492 1494 1496 1497 1497 1498 1499 1500 1501 1502 1502 1502 1503 1503 1503
1447 1452 1451 1448 1445 1447 1449 1447 1444 1447 1449 1457 1455 1454 1454 1453 1457 1461 1464 1467 1470 1473 1476 1480 1482 1484 1486 1488 1490 1491 1493 1494 1495 1496 1496 1497 1498 1499 1499 1499 1500 1500 1500 1501
1447 1452 1452 1452 1446 1445 1449 1447 1444 1443 1443 1445 1446 1450 1448 1452 1456 1460 1464 1466 1470 1473 1475 1479 1481 1482 1484 1486 1488 1489 1491 1492 1494 1494 1495 1495 1496 1496 1496 1497 1497 1497 1497 1497
1448 1452 1459 1460 1450 1449 1455 1446 1444 1444 1443 1445 1450 1449 1447 1451 1456 1460 1464 1466 1470 1473 1476 1477 1479 1481 1483 1484 1486 1487 1489 1491 1492 1492 1493 1493 1494 1494 1494 1494 1494 1494 1494 1494
1449 1453 1456 1458 1459 1471 1451 1437 1437 1442 1444 1443 1445 1446 1447 1452 1456 1460 1463 1467 1470 1472 1475 1476 1478 1480 1482 1483 1485 1486 1487 1489 1489 1490 1491 1491 1491 1491 1491 1491 1491 1491 1491 1491
1444 1451 1457 1459 1461 1456 1446 1440 1440 1444 1450 1446 1446 1449 1450 1453 1456 1461 1464 1467 1469 1472 1474 1476 1477 1479 1480 1482 1483 1484 1486 1486 1487 1488 1488 1489 1489 1489 1489 1489 1488 1488 1488 1489
1443 1445 1454 1457 1464 1466 1453 1442 1440 1443 1452 1448 1449 1451 1452 1455 1460 1463 1465 1467 1469 1471 1473 1474 1476 1477 1478 1480 1481 1482 1483 1484 1485 1485 1486 1486 1486 1486 1486 1486 1486 1486 1486 1485
1450 1451 1454 1457 1459 1455 1447 1443 1443 1456 1458 1451 1452 1454 1455 1457 1461 1464 1466 1468 1470 1472 1473 1474 1475 1476 1477 1478 1479 1480 1481 1481 1482 1483 1483 1483 1483 1483 1483 1483 1482 1482 1482 1482
1448 1450 1453 1455 1461 1462 1448 1447 1450 1453 1451 1452 1453 1456 1458 1459 1462 1464 1466 1468 1470 1471 1472 1473 1474 1475 1476 1476 1477 1478 1478 1479 1480 1480 1480 1479 1479 1480 1480 1479 1479 1479 1479 1479
1442 1444 1445 1449 1454 1450 1449 1450 1452 1451 1452 1454 1455 1457 1459 1460 1462 1465 1467 1468 1469 1470 1472 1473 1473 1474 1474 1475 1475 1475 1476 1476 1476 1477 1476 1476 1476 1476 1476 1476 1476 1476 1476 1476
1442 1442 1444 1447 1447 1447 1449 1451 1452 1453 1453 1454 1456 1457 1459 1460 1462 1464 1467 1467 1468 1469 1471 1472 1472 1472 1472 1472 1473 1473 1473 1473 1473 1473 1473 1473 1473 1472 1473 1472 1472 1472 1472 1472
1445 1445 1447 1448 1448 1449 1449 1452 1453 1454 1454 1454 1456 1458 1459 1460 1461 1463 1464 1465 1466 1468 1468 1469 1470 1470 1470 1470 1470 1470 1470 1470 1470 1470 1470 1470 1469 1469 1469 1469 1469 1468 1468 1469
1446 1446 1448 1449 1449 1451 1452 1453 1454 1455 1455 1455 1456 1457 1458 1460 1461 1462 1463 1464 1465 1465 1466 1466 1467 1467 1467 1466 1466 1467 1467 1467 1466 1466 1466 1466 1466 1466 1465 1465 1465 1464 1464 1464